#timestamp,LO_Frequency,Hit,StdDev 
1594768435.1,286047019.3,P
1594768436.0,286047019.3,P
1594768455.8,286047019.5,P
1594768475.7,286047019.7,Y
1594768495.5,286047000.1,P
1594768515.3,286046999.7,N
1594768535.2,286047000.6,N
1594768555.0,286047000.2,N
1594768555.9,286047000.2,N
1594768575.8,286047002.2,N
1594768595.6,286047003.9,N
1594768615.4,286047003.0,N
1594768635.3,286047003.0,N
1594768655.1,286047005.2,N
1594768656.0,286047005.2,N
1594768675.8,286047004.7,N
1594768695.7,286047005.9,N
1594768715.5,286047005.1,N
1594768735.4,286047005.9,N
1594768755.2,286047003.1,N
1594768775.0,286047003.8,N
1594768775.9,286047003.8,N
1594768795.8,286047002.4,N
1594768815.6,286047002.7,N
1594768835.4,286047002.4,N
1594768855.3,286047003.9,N
1594768875.1,286047006.0,N
1594768895.9,286047003.5,N
1594768915.7,286047004.7,N
1594768935.5,286047007.4,N
1594768955.4,286047006.8,N
1594768975.2,286047006.6,N
1594768995.0,286047008.9,N
1594768995.9,286047008.9,N
1594769015.8,286047006.4,N
1594769035.6,286047006.6,N
1594769055.5,286047006.3,N
1594769075.3,286047007.3,Y
1594769095.1,286046999.7,P
1594769115.9,286047002.5,N
1594769135.7,286047002.3,N
1594769155.5,286047002.1,N
1594769175.4,286047004.0,N
1594769195.2,286047006.0,Y
1594769215.1,286047000.2,P
1594769216.0,286047000.2,N
1594769235.8,286047001.6,N
1594769255.6,286047004.0,Y
1594769275.5,286047001.6,P
1594769295.3,286047001.6,P
1594769315.2,286047004.1,P
1594769335.9,286047006.0,Y
1594769355.7,286047001.4,P
1594769375.6,286047003.1,P
1594769395.4,286047005.1,P
1594769415.3,286047005.8,Y
1594769435.1,286047001.4,P
1594769436.0,286047001.4,N
1594769455.8,286047003.8,P
1594769475.7,286047003.6,Y
1594769495.5,286047002.3,P
1594769515.4,286047002.7,P
1594769535.2,286047002.4,P
1594769555.0,286046999.7,N
1594769555.9,286046999.7,N
1594769575.8,286047002.0,N
1594769595.6,286047000.1,N
1594769615.4,286046999.9,N
1594769635.3,286047001.5,N
1594769655.1,286047001.9,N
1594769675.9,286047004.4,Y
1594769695.7,286047002.6,P
1594769715.5,286047001.8,N
1594769735.4,286047003.0,P
1594769755.2,286047003.6,Y
1594769775.0,286047002.3,P
1594769775.9,286047002.3,P
1594769795.8,286046999.8,P
1594769815.6,286047000.8,N
1594769835.5,286047002.0,N
1594769855.3,286047003.7,Y
1594769875.1,286047004.0,P
1594769895.9,286047002.0,N
1594769915.7,286047002.2,N
1594769935.6,286047001.9,N
1594769955.4,286047002.7,Y
1594769975.2,286046998.6,P
1594769995.1,286046998.5,N
1594769996.0,286046998.5,N
1594770015.8,286046998.4,N
1594770035.6,286047001.0,N
1594770055.5,286046998.6,N
1594770075.3,286047002.7,N
1594770095.2,286046999.7,N
1594770115.9,286047001.9,N
1594770135.7,286046999.9,N
1594770155.6,286047004.3,N
1594770175.4,286047002.6,N
1594770195.2,286047005.9,N
1594770215.1,286047003.3,N
1594770216.0,286047003.3,N
1594770235.8,286047006.0,N
1594770255.7,286047005.8,N
1594770275.5,286047005.6,N
1594770295.3,286047005.6,N
1594770315.2,286047005.5,N
1594770335.0,286047007.4,N
1594770335.9,286047007.4,N
1594770355.7,286047008.5,N
1594770375.6,286047006.6,N
1594770395.4,286047008.0,N
1594770415.3,286047009.0,N
1594770435.1,286047010.3,Y
1594770455.8,286047008.7,P
1594770475.7,286047007.7,N
1594770495.5,286047012.0,P
1594770515.4,286047011.5,Y
1594770535.2,286047005.5,P
1594770555.0,286047005.5,P
1594770555.9,286047005.5,P
1594770575.8,286047008.5,Y
1594770595.6,286047004.1,P
1594770615.5,286047003.7,P
1594770635.3,286047004.4,P
1594770655.1,286047001.9,N
1594770675.9,286047001.4,N
1594770695.7,286047004.1,N
1594770715.5,286047003.2,N
1594770735.4,286047006.0,Y
1594770755.2,286047000.5,P
1594770775.1,286047000.0,N
1594770776.0,286047000.0,N
1594770795.8,286047002.6,N
1594770815.6,286047001.7,N
1594770835.5,286047001.5,N
1594770855.3,286047002.2,N
1594770875.2,286047004.3,Y
1594770895.9,286047002.6,P
1594770915.7,286047002.2,P
1594770935.6,286047002.4,P
1594770955.4,286047002.8,Y
1594770975.2,286046998.4,P
1594770995.1,286047001.0,N
1594770996.0,286047001.0,N
1594771015.8,286047002.5,N
1594771035.7,286047006.0,Y
1594771055.5,286047002.1,P
1594771075.3,286047001.5,N
1594771095.2,286047002.2,P
1594771115.0,286047002.4,Y
1594771115.9,286047002.4,P
1594771135.8,286047002.4,P
1594771155.6,286047002.8,P
1594771175.4,286047002.6,Y
1594771195.3,286047000.8,P
